Regional Weather Roundup
Issued by NWS

Home | Current Version | Previous Version | Text Only | Print | Product List | Glossary Off
Versions: 1 2 3 4 5 6 7 8 9 10 11 12 13 14 15 16 17 18 19 20 21 22 23 24 25 26 27 28 29 30 31 32 33 34 35 36 37 38 39 40 41 42 43 44 45 46 47 48 49 50

000
ASUS43 KLMK 162310
RWRKY
KENTUCKY REGIONAL WEATHER ROUNDUP
NATIONAL WEATHER SERVICE LOUISVILLE KY
700 PM EDT WED AUG 16 2017

NOTE "FAIR" INDICATES FEW OR NO CLOUDS BELOW 12,000 FEET
WITH NO SIGNIFICANT WEATHER AND/OR OBSTRUCTIONS TO VISIBILITY.

KYZ001>023-026-027-061>063-070>075-170000-
WESTERN AND SOUTH CENTRAL KENTUCKY

CITY           SKY/WX    TMP DP  RH WIND       PRES   REMARKS
PADUCAH        MOSUNNY   87  73  62 W10       29.94R HX  94
HENDERSON      MOSUNNY   82  73  74 E3        29.94R THUNDER
OWENSBORO      MOSUNNY   86  74  67 SE6       29.95S HX  94
HOPKINSVILLE   SUNNY     89  74  59 S9        29.96S HX  98
BOWLING GREEN  PTSUNNY   81  78  91 SW3       29.99R
GLASGOW        CLOUDY    82  75  79 CALM      29.99S
$$

KYZ024-025-028>034-038-045-046-053-170000-
NORTH CENTRAL KENTUCKY

CITY           SKY/WX    TMP DP  RH WIND       PRES   REMARKS
LOUISVILLE/SDF PTSUNNY   89  70  53 SW9       29.95S HX  94
LOUISVILLE/LOU MOSUNNY   89  71  55 SW7       29.95S HX  95
FORT KNOX      MOSUNNY   81  75  81 S7        29.97R
$$

KYZ035>037-039>044-047>052-055>060-089>105-170000-
NORTHEAST KENTUCKY

CITY           SKY/WX    TMP DP  RH WIND       PRES   REMARKS
LEXINGTON      SUNNY     86  70  58 SW6       29.99F HX  90
COVINGTON      PTSUNNY   86  73  65 S12       29.96S HX  93
FRANKFORT      SUNNY     87  70  56 SW6       29.96F HX  92
$$

KYZ054-064>069-076>088-106>120-170000-
SOUTHEAST KENTUCKY

CITY           SKY/WX    TMP DP  RH WIND       PRES   REMARKS
JACKSON        MOSUNNY   80  73  79 CALM      30.03F
LONDON         MOSUNNY   85  71  63 W6        30.02S HX  90
SOMERSET       SUNNY     82  70  65 W5        30.02S
MIDDLESBORO    MOSUNNY   82  73  73 NE5       30.03S
MONTICELLO     CLOUDY    88  75  65 W10       30.02F HX  97
$$





USA.gov is the U.S. government's official web portal to all federal, state and local government web resources and services.